• In Belgien
  • Länderverzeichnis
  • Für 7 Tage
  • Wassertemperatur
  • Satellitenkarten
  • Wetterkarte
  • Widgets
  • user-avatar
    Anmelden

    Stündliche Wetter Satif

    Heute, 22 Januar, Montag

    Zeit Temperatur Niederschläge Wind Luftdruck Luftfeuchtigkeit
    00:00 +6°C° 0 mm 2 m/S 676 mmHg 81%
    01:00 +6°C° 0 mm 2 m/S 676 mmHg 82%
    02:00 +6°C° 0 mm 2 m/S 676 mmHg 83%
    03:00 +5°C° 0 mm 2 m/S 676 mmHg 83%
    04:00 +5°C° 0 mm 2 m/S 675 mmHg 83%
    05:00 +5°C° 0 mm 2 m/S 675 mmHg 82%
    06:00 +5°C° 0 mm 2 m/S 675 mmHg 82%
    07:00 +7°C° 0 mm 2 m/S 676 mmHg 75%
    08:00 +8°C° 0 mm 2 m/S 677 mmHg 69%
    09:00 +10°C° 0 mm 2 m/S 677 mmHg 62%
    10:00 +12°C° 0 mm 2 m/S 678 mmHg 58%
    11:00 +13°C° 0 mm 3 m/S 678 mmHg 53%
    12:00 +14°C° 0 mm 3 m/S 678 mmHg 49%
    13:00 +14°C° 0 mm 3 m/S 678 mmHg 49%
    14:00 +14°C° 0 mm 3 m/S 678 mmHg 48%
    15:00 +14°C° 0 mm 3 m/S 678 mmHg 48%
    16:00 +14°C° 0 mm 2 m/S 677 mmHg 56%
    17:00 +12°C° 0 mm 2 m/S 677 mmHg 63%
    18:00 +10°C° 0 mm 1 m/S 676 mmHg 70%
    19:00 +10°C° 0 mm 1 m/S 676 mmHg 73%
    20:00 +9°C° 0 mm 1 m/S 676 mmHg 75%
    21:00 +9°C° 0 mm 1 m/S 677 mmHg 77%
    22:00 +8°C° 0 mm 1 m/S 676 mmHg 78%
    23:00 +8°C° 0 mm 1 m/S 676 mmHg 78%

    Morgen, 23 Januar, Dienstag

    Zeit Temperatur Niederschläge Wind Luftdruck Luftfeuchtigkeit
    00:00 +8°C° 0 mm 1 m/S 676 mmHg 78%
    01:00 +8°C° 0 mm 1 m/S 676 mmHg 79%
    02:00 +7°C° 0 mm 1 m/S 676 mmHg 79%
    03:00 +7°C° 0 mm 1 m/S 676 mmHg 79%
    04:00 +7°C° 0 mm 1 m/S 676 mmHg 79%
    05:00 +6°C° 0 mm 1 m/S 676 mmHg 79%
    06:00 +6°C° 0 mm 1 m/S 676 mmHg 79%
    07:00 +8°C° 0 mm 1 m/S 676 mmHg 72%
    08:00 +10°C° 0 mm 1 m/S 677 mmHg 65%
    09:00 +11°C° 0 mm 1 m/S 678 mmHg 58%
    10:00 +12°C° 0 mm 1 m/S 678 mmHg 54%
    11:00 +14°C° 0 mm 2 m/S 678 mmHg 49%
    12:00 +15°C° 0 mm 2 m/S 678 mmHg 45%
    13:00 +15°C° 0 mm 2 m/S 678 mmHg 45%
    14:00 +15°C° 0 mm 2 m/S 678 mmHg 46%
    15:00 +15°C° 0 mm 2 m/S 678 mmHg 46%
    16:00 +13°C° 0 mm 2 m/S 678 mmHg 54%
    17:00 +12°C° 0 mm 2 m/S 678 mmHg 62%
    18:00 +10°C° 0 mm 1 m/S 677 mmHg 70%
    19:00 +9°C° 0 mm 1 m/S 677 mmHg 73%
    20:00 +9°C° 0 mm 1 m/S 678 mmHg 76%
    21:00 +8°C° 0 mm 1 m/S 678 mmHg 79%
    22:00 +8°C° 0 mm 1 m/S 678 mmHg 80%
    23:00 +7°C° 0 mm 1 m/S 677 mmHg 81%

    übermorgen, 24 Januar, Mittwoch

    Zeit Temperatur Niederschläge Wind Luftdruck Luftfeuchtigkeit
    00:00 +6°C° 0 mm 0 m/S 677 mmHg 83%
    01:00 +6°C° 0 mm 0 m/S 677 mmHg 83%
    02:00 +5°C° 0 mm 0 m/S 677 mmHg 84%
    03:00 +5°C° 0 mm 0 m/S 677 mmHg 84%
    04:00 +5°C° 0 mm 0 m/S 677 mmHg 84%
    05:00 +5°C° 0 mm 0 m/S 677 mmHg 85%
    06:00 +4°C° 0 mm 0 m/S 677 mmHg 85%
    07:00 +6°C° 0 mm 0 m/S 677 mmHg 78%
    08:00 +8°C° 0 mm 0 m/S 678 mmHg 71%
    09:00 +9°C° 0 mm 0 m/S 679 mmHg 64%
    10:00 +12°C° 0 mm 1 m/S 679 mmHg 58%
    11:00 +13°C° 0 mm 1 m/S 679 mmHg 53%
    12:00 +14°C° 0 mm 1 m/S 679 mmHg 48%
    13:00 +14°C° 0 mm 1 m/S 679 mmHg 47%
    14:00 +14°C° 0 mm 2 m/S 679 mmHg 47%
    15:00 +15°C° 0 mm 2 m/S 678 mmHg 47%
    16:00 +13°C° 0 mm 2 m/S 678 mmHg 54%
    17:00 +10°C° 0 mm 2 m/S 678 mmHg 62%
    18:00 +10°C° 0 mm 1 m/S 678 mmHg 69%
    19:00 +10°C° 0 mm 1 m/S 678 mmHg 70%
    20:00 +9°C° 0 mm 1 m/S 678 mmHg 71%
    21:00 +8°C° 0 mm 2 m/S 678 mmHg 72%
    22:00 +7°C° 0 mm 2 m/S 678 mmHg 72%
    23:00 +7°C° 0 mm 2 m/S 677 mmHg 72%

    25 Januar, Donnerstag

    Zeit Temperatur Niederschläge Wind Luftdruck Luftfeuchtigkeit
    00:00 +7°C° 0 mm 2 m/S 677 mmHg 72%
    01:00 +7°C° 0 mm 2 m/S 677 mmHg 73%
    02:00 +6°C° 0 mm 2 m/S 677 mmHg 73%
    03:00 +6°C° 0 mm 2 m/S 676 mmHg 74%
    04:00 +6°C° 0 mm 2 m/S 676 mmHg 75%
    05:00 +4°C° 0 mm 3 m/S 676 mmHg 76%
    06:00 +4°C° 0 mm 3 m/S 676 mmHg 77%
    07:00 +5°C° 0 mm 3 m/S 676 mmHg 72%
    08:00 +8°C° 0 mm 3 m/S 677 mmHg 67%
    09:00 +9°C° 0 mm 3 m/S 678 mmHg 63%
    10:00 +10°C° 0 mm 4 m/S 677 mmHg 57%
    11:00 +12°C° 0 mm 4 m/S 677 mmHg 52%
    12:00 +13°C° 0 mm 4 m/S 677 mmHg 47%
    13:00 +13°C° 0 mm 4 m/S 677 mmHg 47%
    14:00 +13°C° 0 mm 4 m/S 676 mmHg 46%
    15:00 +13°C° 0 mm 4 m/S 676 mmHg 46%
    16:00 +12°C° 0 mm 3 m/S 675 mmHg 52%
    17:00 +10°C° 0 mm 3 m/S 675 mmHg 58%
    18:00 +9°C° 0 mm 3 m/S 675 mmHg 64%
    19:00 +8°C° 0 mm 3 m/S 675 mmHg 66%
    20:00 +8°C° 0 mm 3 m/S 675 mmHg 68%
    21:00 +7°C° 0 mm 3 m/S 675 mmHg 70%
    22:00 +7°C° 0 mm 3 m/S 675 mmHg 71%
    23:00 +7°C° 0 mm 3 m/S 674 mmHg 72%

    26 Januar, Freitag

    Zeit Temperatur Niederschläge Wind Luftdruck Luftfeuchtigkeit
    00:00 +5°C° 0 mm 3 m/S 674 mmHg 73%
    01:00 +5°C° 0 mm 3 m/S 674 mmHg 75%
    02:00 +5°C° 0 mm 3 m/S 673 mmHg 76%
    03:00 +4°C° 0 mm 3 m/S 673 mmHg 78%
    04:00 +4°C° 0 mm 3 m/S 673 mmHg 79%
    05:00 +4°C° 0 mm 3 m/S 673 mmHg 80%
    06:00 +4°C° 0 mm 3 m/S 672 mmHg 81%
    07:00 +5°C° 0 mm 3 m/S 673 mmHg 76%
    08:00 +7°C° 0 mm 3 m/S 673 mmHg 71%
    09:00 +8°C° 0 mm 3 m/S 674 mmHg 66%
    10:00 +9°C° 0 mm 3 m/S 673 mmHg 61%
    11:00 +10°C° 0 mm 4 m/S 673 mmHg 55%
    12:00 +12°C° 0 mm 4 m/S 673 mmHg 50%
    13:00 +12°C° 0 mm 4 m/S 673 mmHg 50%
    14:00 +11°C° 0 mm 4 m/S 672 mmHg 50%
    15:00 +11°C° 0 mm 4 m/S 672 mmHg 49%
    16:00 +10°C° 0,2 mm 3 m/S 672 mmHg 56%
    17:00 +9°C° 0,2 mm 3 m/S 672 mmHg 64%
    18:00 +8°C° 0,2 mm 2 m/S 672 mmHg 71%
    19:00 +7°C° 0,3 mm 2 m/S 672 mmHg 74%
    20:00 +7°C° 0,3 mm 2 m/S 672 mmHg 78%
    21:00 +6°C° 0,3 mm 2 m/S 672 mmHg 82%
    22:00 +6°C° 1,8 mm 2 m/S 672 mmHg 84%
    23:00 +5°C° 1,8 mm 2 m/S 672 mmHg 87%

    27 Januar, Samstag

    Zeit Temperatur Niederschläge Wind Luftdruck Luftfeuchtigkeit
    00:00 +5°C° 1,8 mm 2 m/S 672 mmHg 89%
    01:00 +5°C° 1,2 mm 2 m/S 671 mmHg 90%
    02:00 +4°C° 1,2 mm 2 m/S 671 mmHg 90%
    03:00 +4°C° 1,2 mm 2 m/S 671 mmHg 90%
    04:00 +4°C° 1,5 mm 2 m/S 670 mmHg 91%
    05:00 +4°C° 1,5 mm 2 m/S 670 mmHg 91%
    06:00 +4°C° 1,5 mm 2 m/S 670 mmHg 92%
    07:00 +3°C° 3,2 mm 3 m/S 670 mmHg 91%
    08:00 +3°C° 3,2 mm 3 m/S 670 mmHg 90%
    09:00 +3°C° 3,2 mm 3 m/S 671 mmHg 89%
    10:00 +3°C° 1,9 mm 4 m/S 670 mmHg 89%
    11:00 +2°C° 1,9 mm 5 m/S 670 mmHg 89%
    12:00 +1°C° 1,9 mm 6 m/S 670 mmHg 88%
    13:00 +1°C° 1,3 mm 6 m/S 670 mmHg 88%
    14:00 0°C° 1,3 mm 7 m/S 670 mmHg 88%
    15:00 0°C° 1,3 mm 7 m/S 669 mmHg 88%
    16:00 0°C° 1,3 mm 7 m/S 669 mmHg 89%
    17:00 0°C° 1,3 mm 7 m/S 670 mmHg 90%
    18:00 -1°C° 1,3 mm 7 m/S 670 mmHg 91%
    19:00 -1°C° 2,6 mm 6 m/S 670 mmHg 92%
    20:00 0°C° 2,6 mm 4 m/S 670 mmHg 93%
    21:00 +1°C° 2,6 mm 3 m/S 670 mmHg 94%
    22:00 +1°C° 2,1 mm 3 m/S 670 mmHg 94%
    23:00 +2°C° 2,1 mm 2 m/S 670 mmHg 94%
    Mehr zeigen